Regional Weather Roundup
Issued by NWS

Home | Current Version | Previous Version | Graphics & Text | Print | Product List | Glossary On
Versions: 1 2 3 4 5 6 7 8 9 10 11 12 13 14 15 16 17 18 19 20 21 22 23 24 25 26 27
000
ASUS45 KBOU 282107
RWRCO

WEATHER ROUNDUP FOR COLORADO
NATIONAL WEATHER SERVICE DENVER/BOULDER CO
300 PM MDT THU APR 28 2016

NOTE: "FAIR" INDICATES FEW OR NO CLOUDS BELOW 12000 FEET WITH NO
SIGNIFICANT WEATHER AND/OR OBSTRUCTIONS TO VISIBILITY.

COZ001>005-013-030-031-282200-
...NORTHWEST COLORADO...

CITY           SKY/WX    TMP DP  RH WIND       PRES   REMARKS
CRAIG          CLOUDY    46  37  71 NW3       29.80S
HAYDEN         FAIR      45  36  70 E5        29.79F
MEEKER         CLOUDY    49  37  63 W21       29.78R THUNDER
MOUNT WERNER   NOT AVBL
STEAMBOAT SPGS FAIR      42  37  83 W5        29.80F
WALDEN         PTSUNNY   36  30  80 SE6       29.88R
$$

COZ006>008-011-282200-
...WEST CENTRAL VALLEYS...

CITY           SKY/WX    TMP DP  RH WIND       PRES   REMARKS
GRAND JUNCTION FAIR      53  38  56 NW10      29.75R
MONTROSE       PTSUNNY   54  39  57 N13       29.72S
EAGLE          CLOUDY    50  34  53 E10       29.79F
RIFLE          LGT RAIN  43  36  76 W20       29.77R
DELTA          NOT AVBL
NUCLA          NOT AVBL
$$

COZ017>023-064>068-282200-
...SOUTHWEST COLORADO...

CITY           SKY/WX    TMP DP  RH WIND       PRES   REMARKS
DURANGO        FAIR      59  16  18 S13G24    29.74F
CORTEZ         CLOUDY    53  28  38 E12       29.74F
PAGOSA SPRINGS PTSUNNY   54  11  18 SW18      29.79S
TELLURIDE      CLOUDY    43  20  39 W6        29.84R
WOLF CREEK PAS NOT AVBL
$$

COZ009-010-012-014-032>034-037-058>063-282200-
...CENTRAL COLORADO...

CITY           SKY/WX    TMP DP  RH WIND       PRES   REMARKS
ASPEN          PTSUNNY   46  32  58 N7        29.76F
BUENA VISTA    CLOUDY    37  29  74 CALM      29.89F
COPPER MTN     NOT AVBL
BERTHOUD PASS  HAZE      21  10  63 E6        29.95R THUNDER VSB 1/4
COTTONWOOD PAS CLOUDY    34  32  93 CALM      29.92R
GUNNISON       FAIR      55  12  18 SW20G32   29.78F
KREMMLING      CLOUDY    43  32  65 E5        29.85S
LEADVILLE      LGT SNOW  29  29 100 S15       29.86F FOG     WCI  18
MONARCH PASS   PTSUNNY   34  16  47 SW33G48   30.02F HAZE    WCI  19
SALIDA         FAIR      42  32  67 SE22G30   29.96F
SUNLIGHT       LGT SNOW  34  32  93 CALM      29.90R
WILKERSON PASS PTSUNNY   32  30  93 S5        29.97S WCI  27
$$

COZ069>075-282200-
...SAN LUIS VALLEY/SANGRE DE CRISTO MOUNTAINS...

CITY           SKY/WX    TMP DP  RH WIND       PRES   REMARKS
ALAMOSA        CLOUDY    53  24  32 S9G22     29.81S
LA VETA PASS   SNOW      30  27  86 MISG      29.96R VSB 1/4
SAGUACHE       FAIR      52  23  32 SW18G28   29.83S
$$

COZ035-036-038>040-282200-
...NORTHERN COLORADO FRONT RANGE...

CITY           SKY/WX    TMP DP  RH WIND       PRES   REMARKS
DENVER INTL AP CLOUDY    38  30  73 E13       29.97S
DMNS CITY PARK   N/A     39  31  75 E12       29.97S
AURORA         CLOUDY    37  34  89 E9        29.97S
FRONT RANGE AP CLOUDY    37  32  81 E10G17    29.99R
ERIE MUNI ARPT CLOUDY    39  35  83 SE8       30.00R
BOULDER MUN AP LGT RAIN  36  36 100 NE3       29.99R
CENTENNIAL     CLOUDY    38  32  79 E9        29.96R
BROOMFIELD     CLOUDY    37  36  93 E7        29.99R
FORT COLLINS   CLOUDY    37  32  81 SE7       30.00S
LONGMONT       CLOUDY    42  36  80 E6        30.01R HAZE
$$

COZ041-046-047-076>085-087-088-282200-
...PIKES PEAK/PALMER DIVIDE AND SOUTHERN FOOTHILLS...

CITY           SKY/WX    TMP DP  RH WIND       PRES   REMARKS
COLO. SPRINGS  CLOUDY    37  30  75 S13       29.98S
A. F. ACADEMY  CLOUDY    36  30  80 SE14      29.96S
SCHRIEVER AFB  NOT AVBL
ELLICOTT       NOT AVBL
FALCON         CLOUDY    34  30  85 S9        29.98R WCI  27
FORT CARSON    NOT AVBL
LIMON          CLOUDY    40  33  76 E9        29.98S
MONUMENT HILL  CLOUDY    32  30  93 S14G20    29.98R WCI  22
TRINIDAD       CLOUDY    56  35  45 E21G30    29.85F
$$

COZ042>045-048>051-090-091-282200-
...NORTHEAST COLORADO...

CITY           SKY/WX    TMP DP  RH WIND       PRES   REMARKS
GREELEY ARPT   CLOUDY    39  34  81 S10       30.01R
AKRON          CLOUDY    38  33  82 NE6       30.00S
BURLINGTON     CLOUDY    48  32  53 NE8       29.99S
WRAY           NOT AVBL
STERLING       CLOUDY    41  34  75 E6        30.00F
HOLYOKE        NOT AVBL
FORT MORGAN    CLOUDY    39  34  83 E6        30.02R
$$

COZ086-089-092>099-282200-
...SOUTHEAST COLORADO...

CITY           SKY/WX    TMP DP  RH WIND       PRES   REMARKS
PUEBLO         CLOUDY    47  29  49 NE3       29.97R
LA JUNTA       PTSUNNY   51  29  42 E18       29.94F
LAMAR          CLOUDY    52  31  44 E9        29.95F
SPRINGFIELD      N/A     52  34  50 SE9       29.94F
$$




USA.gov is the U.S. government's official web portal to all federal, state and local government web resources and services.